Location: Hermaringen
(48.5952°N, 10.2585°E)
Time: 02:35:40
(UTC+00:00)

Cosmos 2344 - Pass Details

Date: 18 November 2025
Orbit: 1197 x 3044 km, 63.3° (Epoch: 04 December)

Event Time Altitude Azimuth Distance (km) Brightness Sun altitude
Rises 16:08:20 0° 309° (NW) 4,117 6.7 -5.6°
Reaches altitude 10° 16:11:11 10° 319° (NW) 3,197 6.0 -6.1°
Maximum altitude 16:18:05 37° 26° (NNE) 2,011 4.3 -7.1°
Drops below altitude 10° 16:26:33 10° 92° (E) 3,939 5.6 -8.4°
Enters shadow 16:28:28 - 97° (E) 4,550 5.9 -8.7°
